Погода в Дубовой Роще

Россия / Орловская область     53°09′37″N   36°03′41″E
темп.,
°C
ветер,
м/с
пор.,
м/с
влажн.,
%
обл.,
%
осадки,
мм/ч
давл.,
гПа
погр.,
м
9 декабря, чт
чт900:00−4ссв51097100 0.0 1017290
03:00−4ссв61096100 0.1 1017270
06:00−4ссв51095100 0.1 1018281
09:00−4ссв61095100 0.2 1020301
12:00−3св5995100 0.1 1020277
15:00−3св5995100 0.1 1021313
18:00−3св51194100 0.0 1023338
21:00−3св61195100 0.0 1024337
10 декабря, пт
пт1000:00−3всв51095100 0.0 1025331
03:00−3всв51095100 0.1 1026334
06:00−2в51095100 0.1 1026306
09:00−2в51196100 0.2 1027349
12:00−1в51297100 0.3 1027387
15:000вюв6119577 0.6 1027410
18:000вюв6129598 0.0 1028388
21:000вюв61394100 0.0 1028414
11 декабря, сб
сб1100:000вюв61292100 0.0 1028443
03:00−1вюв6129254 0.0 1028367
06:00−3вюв61293100 0.0 1028303
09:00−3вюв51393100 0.0 1029352
12:00−2вюв6129163 0.0 1029417
15:00−2вюв61291100 0.0 1028384
18:00−2вюв61391100 0.0 1029396
21:00−2вюв6138958 0.0 1030377
12 декабря, вс
вс1200:00−3юв5129018 0.0 1030323
03:00−3юв51191100 0.0 1031270
06:00−4юв4109194 0.0 1031213
09:00−4вюв4109361 0.0 1032198
12:00−2юв4118969 0.0 1032305
15:00−2вюв5108790 0.0 1031283
18:00−3вюв51287100 0.0 1032261
21:00−3вюв51384100 0.0 1031304
13 декабря, пн
пн1300:00−3юв51382100 0.0 1031316
03:00−2вюв51279100 0.0 1030305
06:00−3вюв51279100 0.0 1029314
09:00−3вюв51279100 0.0 1029312
12:00−2юв51275100 0.0 1028381
15:00−1юв51273100 0.0 1027359
18:00−2вюв51273100 0.0 1027340
21:00−3вюв41175100 0.0 1027290